2018 Detroit Free Press/Chemical Bank Marathon

Detroit, MI
2018-10-21
Starts on: 2018-10-21
Where: Detroit, MI
Categories: International Half Marathon Marathon U.S. Only Half Marathon 5K Marathon Relay 1 Mile
Description: Since 1978, runners from all over the world have traveled to Detroit to take part in our marathon. It's become an event that encompasses people from all walks of life, not just elite runners. Whether you’re a seasoned marathoner, casual runner or training for your first 5K, we have a race for you.
Overall Marathon Relay
name bib rank time pace hometown
Cook Wealth Management/SHOOTOUT CREW 9139 1 02:40:19 06:07 Birmingham, MI
Team RPM - Mixed 9461 2 02:52:29 06:35 Novi, MI
PR Run Club - Koalas 9335 3 02:54:50 06:41 Plymouth, MI
PR Run Club Wallabies 9337 4 03:04:58 07:04 Ann Arbor, MI
PR Run Club - Kookaburras 9336 5 03:06:26 07:07 Ann Arbor, MI
TWV Water Warriors 9527 6 03:11:08 07:18 New Boston, MI
Kiki, Do you love me? 9273 7 03:12:30 07:21 WINDSOR, Canada
Blue Water Running Club 9058 8 03:13:15 07:23 Yale, MI
Team TPD STRONG 9469 9 03:15:22 07:28 Whitehouse, OH
Styron Iron 9423 10 03:17:43 07:33 Canton, MI
City Sneakers A 9084 11 03:20:26 07:39 Mount Clemens, MI
Riverside Runnas 9351 12 03:20:33 07:39 Windsor, Canada
Mama got a boo boo 9292 13 03:20:52 07:40 Longmont, CO
Thighway to the Highway 9506 14 03:22:35 07:44 Farmington, MI
Clarkston Wolfpack 9086 15 03:25:00 07:50 Clarkston, MI
Berkley Bear Runners 9050 16 03:25:07 07:50 Berkley, MI
Ace's Wolfpack takes Detroit 9026 17 03:27:48 07:56 Saint Clair Shores, MI
Adam's Team 9029 18 03:28:21 07:57 Royal Oak, MI
City Sneakers B 9085 19 03:28:50 07:58 Macomb, MI
Gladwin girls 9199 20 03:29:04 07:59 Midland, MI
Fast and Fortyish 9174 21 03:29:11 07:59 South Lyon, MI
Reddy Set Go! 9345 22 03:30:02 08:01 Ann Arbor, MI
Runnin' Dudes 9368 23 03:30:22 08:02 Grand Ledge, MI
Team Humbug 9450 24 03:30:29 08:02 Rockwood, MI
Conti - Team Runtime 9125 25 03:31:13 08:04 Rochester, MI
Fast and Curious 5 9173 26 03:32:11 08:06 Rochester, MI
GM Communications 9201 27 03:33:33 08:09 Novi, MI
Thirst Place 9508 28 03:33:56 08:10 Rochester, MI
NWO 9321 29 03:34:39 08:12 Lake Orion, MI
Faster than a med student closing skin 9177 30 03:34:40 08:12 Ypsilanti, MI
In Your Pace 9245 31 03:36:10 08:15 Utica, MI
Detroit Street Runners 9155 32 03:37:26 08:18 Franklin, MI
Blood, Sweat & Beers 9057 33 03:37:29 08:18 Ypsilanti, MI
Conti - We're Not Dead, We Just Smell Like It! 9133 34 03:38:18 08:20 Auburn Hills, MI
Conti - Electriflyers 9106 35 03:38:19 08:20 Oxford, MI
Breaking, too 9064 36 03:38:31 08:21 Okemos, MI
Bosch CM unBEATables 9062 37 03:38:51 08:21 Clinton Township, MI
Spiderfight 9412 38 03:39:20 08:22 Evanston, IL
Detroit Rum Runner's 9154 39 03:39:34 08:23 Holly, MI
Chris and His Bada$$ Lady Gang 9083 40 03:40:30 08:25 Grosse Pointe, MI
CLPS Relayers 9090 41 03:40:31 08:25 Grosse Pointe, MI
The Bosch Ambassadors 9481 42 03:41:20 08:27 Novi, MI
Ova-Achievers 9327 43 03:41:55 08:28 Detroit, MI
Solt & Associates 9408 44 03:42:06 08:29 Madison Heights, MI
Oh-Beer-Run Kenobi's 9322 45 03:43:07 08:31 Plymouth, MI
20 METs Club 9007 46 03:43:11 08:31 Ann Arbor, MI
Jeepers Creepers 9254 47 03:43:23 08:32 Washington, MI
We got this 2! 9545 48 03:43:26 08:32 Windsor, Canada
Run DMRC 9360 49 03:44:07 08:33 Utica, MI
Fast as a Mother 9175 50 03:44:47 08:35 South Lyon, MI
TGNA MAX JAPAN 9478 51 03:45:03 08:36 Troy, MI
Great Moments 9215 52 03:45:19 08:36 Carleton, MI
Go Beat Tina 9206 53 03:45:23 08:36 Royal Oak, MI
Happy Feet 9221 54 03:45:25 08:36 Farmington, MI
Uber was Busy 9528 55 03:45:59 08:38 Plymouth, MI
Stay Focused 2 9420 56 03:46:11 08:38 Livonia, MI
ENQBATOR 9165 57 03:46:18 08:38 Addison, TX
SL&TQ 9400 58 03:46:51 08:40 Bloomfield Hills, MI
Un-relay-istic Expectations 9529 59 03:47:04 08:40 Wheaton, IL
Running on Water's Edge 9375 60 03:47:19 08:41 Benton Harbor, MI
#810crossfit 9002 61 03:48:09 08:43 Flushing, MI
Love Your Future 9289 62 03:48:36 08:44 Trenton, MI
News Breakers 9315 63 03:49:53 08:47 Windsor, Canada
MBFS Team A 9300 64 03:50:36 08:48 Clarkston, MI
motor city flyers 9311 65 03:50:53 08:49 Wayne, MI
Running Brick Slammers 9369 66 03:51:08 08:49 Whitmore Lake, MI
Shrine moms on the run 9398 67 03:51:26 08:50 Royal Oak, MI
Team Collins 9441 68 03:51:27 08:50 Rochester, MI
GM Financial Team 1 9202 69 03:51:53 08:51 Royal Oak, MI
Hurry Up We're Missing Brunch 9238 70 03:52:09 08:52 Detroit, MI
We used to run track 9550 71 03:52:11 08:52 Sterling Heights, MI
Sun Striders 9425 72 03:52:35 08:53 Farmington, MI
Team 5 9433 73 03:52:54 08:53 Rochester, MI
The Flash 9488 74 03:53:02 08:54 Farmington, MI
Brose New Boston 9068 75 03:53:04 08:54 Canton, MI
Team SPLC 9466 76 03:53:30 08:55 Trenton, MI
Runners on the Edge 9367 77 03:53:37 08:55 Saint Joseph, MI
CLPS Racers 9089 78 03:53:48 08:56 Grosse Pointe, MI
Imagination 1 9242 79 03:54:44 08:58 Birmingham, MI
Hops&Barley 9233 80 03:54:56 08:58 Troy, MI
Scrambled Legs and Achin' 9391 81 03:55:44 09:00 New Baltimore, MI
Sleepwalkers 9401 82 03:56:02 09:01 Washington, MI
And after this... we're making waffles! 9035 83 03:56:21 09:01 Detroit, MI
Team Micale 9454 84 03:57:02 09:03 Macomb, MI
Team Hopper 9449 85 03:57:09 09:03 Southgate, MI
Beer City "Runners" 9048 86 03:57:13 09:03 Oak Park, MI
Conti - ID Rather Be Sleeping 9109 87 03:57:54 09:05 Huntington Woods, MI
KCI: Smooth Sailing 9267 88 03:58:13 09:06 Windsor, Canada
We Run for Bling and Beer 9547 89 03:58:33 09:06 Detroit, MI
Stride Width Modulation 9422 90 03:58:38 09:07 Utica, MI
That's What She Said 9479 91 03:58:42 09:07 Dexter, MI
Burn Boot Camp New Hudson 9071 92 03:58:46 09:07 Newport, MI
Team Alton 2 9434 93 03:59:00 09:07 Rochester, MI
Speedballs 9411 94 03:59:23 09:08 Lansing, MI
Fast & Delirious 9172 95 03:59:24 09:08 Livonia, MI
Stay Focus 1 9419 96 03:59:37 09:09 Livonia, MI
Meatballs for the People 9302 97 03:59:41 09:09 Plymouth, MI
GO2BEDKID 9209 98 03:59:44 09:09 Plymouth, MI
Customer Journey 9149 99 03:59:53 09:09 Livonia, MI
Team Eddie 9444 100 04:00:33 09:11 Ann Arbor, MI

Next Page

For results questions or inquiries please email results@enmotive.com